Starlink 34886

operational
NORAD ID: 65683 Int'l Des: 2025-212 Owner: SPXS Country: US Constellation: starlink
NOTLE

Starlink 34886について

説明を読み込み中...

リアルタイム位置

3D地球を読み込み中...

次回通過

高度履歴

Altitude vs Time

uPlot chart will show altitude changes over time

軌道要素

1 65683C 25212H 25277.72826389 -.01486500 00000+0 -87547-2 0 2775
2 65683 53.1572 353.1746 0000924 72.8905 237.1910 15.79009815 17
Epoch: Oct 4, 2025 • Age: 53 hours

現在のステータス

高度 351.2 km
速度 7.70 km/s
衛星直下点 -20.72°S, 114.07°W
打ち上げ日 Sep 21, 2025
運用期間 14 days
タイプ internet

技術仕様

分類 Payload
質量 575.00 kg
乾燥質量 530.00 kg
総質量 575.00 kg
長さ 0.30 m
直径 4.10 m
スパン 29.00 m
形状 Box + pan
製造者 SPXS
バスタイプ Starlink V2MO
フェーズステータス In Orbit
所有者/国 SPXS/US

大規模コンステレーション

Loading constellations...